When you browse on this site, cookies collect data to enhance your experience and personalize the content and advertising you see.
Visit our Privacy Policy to learn more. By continuing to use the site, you agree to this use of cookies and data.
  • In United Kingdom
  • List of Countries
  • For 7 days
  • Water Temperature
  • Weather Map
  • Weather Widgets
  • user-avatar
    Login

    Hourly Weather Tolna

    Today, 7 April, Tuesday

    Time Temperature Precipitation Wind Pressure Humidity
    00:00 +7°C° 0 mm 2 mps 765 mmHg 52%
    01:00 +6°C° 0 mm 2 mps 765 mmHg 52%
    02:00 +5°C° 0 mm 3 mps 765 mmHg 50%
    03:00 +5°C° 0 mm 3 mps 765 mmHg 48%
    04:00 +5°C° 0 mm 3 mps 765 mmHg 45%
    05:00 +5°C° 0 mm 3 mps 766 mmHg 46%
    06:00 +6°C° 0 mm 4 mps 766 mmHg 46%
    07:00 +6°C° 0 mm 4 mps 766 mmHg 47%
    08:00 +8°C° 0 mm 4 mps 767 mmHg 43%
    09:00 +11°C° 0 mm 4 mps 767 mmHg 40%
    10:00 +13°C° 0 mm 4 mps 767 mmHg 36%
    11:00 +14°C° 0 mm 4 mps 767 mmHg 35%
    12:00 +15°C° 0 mm 4 mps 766 mmHg 34%
    13:00 +17°C° 0 mm 4 mps 766 mmHg 33%
    14:00 +17°C° 0 mm 4 mps 766 mmHg 34%
    15:00 +17°C° 0 mm 3 mps 765 mmHg 35%
    16:00 +18°C° 0 mm 3 mps 765 mmHg 36%
    17:00 +16°C° 0 mm 2 mps 765 mmHg 41%
    18:00 +14°C° 0 mm 2 mps 765 mmHg 46%
    19:00 +12°C° 0 mm 1 mps 765 mmHg 51%
    20:00 +11°C° 0 mm 1 mps 765 mmHg 52%
    21:00 +11°C° 0 mm 1 mps 765 mmHg 54%
    22:00 +9°C° 0 mm 0 mps 766 mmHg 55%
    23:00 +8°C° 0 mm 0 mps 765 mmHg 57%

    Tomorrow, 8 April, Wednesday

    Time Temperature Precipitation Wind Pressure Humidity
    00:00 +8°C° 0 mm 0 mps 765 mmHg 58%
    01:00 +7°C° 0 mm 0 mps 765 mmHg 59%
    02:00 +7°C° 0 mm 0 mps 765 mmHg 59%
    03:00 +7°C° 0 mm 0 mps 765 mmHg 59%
    04:00 +6°C° 0 mm 0 mps 765 mmHg 60%
    05:00 +8°C° 0 mm 0 mps 765 mmHg 58%
    06:00 +9°C° 0 mm 0 mps 765 mmHg 56%
    07:00 +10°C° 0 mm 0 mps 765 mmHg 54%
    08:00 +12°C° 0 mm 0 mps 765 mmHg 49%
    09:00 +14°C° 0 mm 1 mps 765 mmHg 43%
    10:00 +16°C° 0 mm 1 mps 764 mmHg 38%
    11:00 +18°C° 0 mm 1 mps 764 mmHg 36%
    12:00 +19°C° 0 mm 1 mps 763 mmHg 35%
    13:00 +20°C° 0 mm 1 mps 763 mmHg 33%
    14:00 +20°C° 0 mm 1 mps 762 mmHg 33%
    15:00 +20°C° 0 mm 1 mps 762 mmHg 33%
    16:00 +20°C° 0 mm 1 mps 761 mmHg 33%
    17:00 +18°C° 0 mm 1 mps 761 mmHg 38%
    18:00 +15°C° 0 mm 1 mps 761 mmHg 42%
    19:00 +13°C° 0 mm 1 mps 760 mmHg 47%
    20:00 +12°C° 0 mm 0 mps 761 mmHg 49%
    21:00 +11°C° 0 mm 0 mps 761 mmHg 51%
    22:00 +10°C° 0 mm 0 mps 761 mmHg 52%
    23:00 +10°C° 0 mm 0 mps 760 mmHg 54%

    Day after tomorrow, 9 April, Thursday

    Time Temperature Precipitation Wind Pressure Humidity
    00:00 +9°C° 0 mm 0 mps 760 mmHg 55%
    01:00 +9°C° 0 mm 0 mps 760 mmHg 56%
    02:00 +9°C° 0 mm 0 mps 760 mmHg 57%
    03:00 +8°C° 0 mm 0 mps 759 mmHg 58%
    04:00 +8°C° 0 mm 0 mps 759 mmHg 59%
    05:00 +9°C° 0 mm 0 mps 759 mmHg 57%
    06:00 +10°C° 0 mm 0 mps 759 mmHg 56%
    07:00 +11°C° 0 mm 0 mps 759 mmHg 55%
    08:00 +13°C° 0 mm 0 mps 759 mmHg 50%
    09:00 +15°C° 0 mm 0 mps 759 mmHg 46%
    10:00 +17°C° 0 mm 0 mps 759 mmHg 42%
    11:00 +20°C° 0 mm 1 mps 759 mmHg 39%
    12:00 +20°C° 0 mm 1 mps 759 mmHg 35%
    13:00 +21°C° 0 mm 1 mps 758 mmHg 32%
    14:00 +21°C° 0 mm 1 mps 758 mmHg 32%
    15:00 +21°C° 0 mm 1 mps 757 mmHg 32%
    16:00 +20°C° 0 mm 2 mps 757 mmHg 32%
    17:00 +19°C° 0 mm 1 mps 757 mmHg 37%
    18:00 +16°C° 0 mm 1 mps 756 mmHg 41%
    19:00 +14°C° 0 mm 1 mps 756 mmHg 46%
    20:00 +14°C° 0 mm 1 mps 757 mmHg 47%
    21:00 +13°C° 0 mm 2 mps 757 mmHg 48%
    22:00 +13°C° 0 mm 2 mps 757 mmHg 50%
    23:00 +12°C° 0 mm 2 mps 757 mmHg 51%

    10 April, Friday

    Time Temperature Precipitation Wind Pressure Humidity
    00:00 +11°C° 0 mm 3 mps 757 mmHg 52%
    01:00 +11°C° 0 mm 3 mps 757 mmHg 54%
    02:00 +11°C° 0 mm 3 mps 757 mmHg 55%
    03:00 +10°C° 0 mm 3 mps 757 mmHg 57%
    04:00 +10°C° 0 mm 3 mps 757 mmHg 59%
    05:00 +11°C° 0 mm 4 mps 757 mmHg 61%
    06:00 +12°C° 0 mm 4 mps 757 mmHg 64%
    07:00 +13°C° 0 mm 5 mps 758 mmHg 67%
    08:00 +15°C° 0 mm 5 mps 758 mmHg 61%
    09:00 +16°C° 0 mm 5 mps 758 mmHg 55%
    10:00 +19°C° 0 mm 6 mps 758 mmHg 49%
    11:00 +20°C° 0 mm 6 mps 758 mmHg 46%
    12:00 +20°C° 0 mm 6 mps 758 mmHg 43%
    13:00 +21°C° 0 mm 6 mps 758 mmHg 41%
    14:00 +20°C° 0 mm 6 mps 757 mmHg 42%
    15:00 +20°C° 0 mm 5 mps 757 mmHg 42%
    16:00 +19°C° 0 mm 5 mps 757 mmHg 43%
    17:00 +18°C° 0 mm 4 mps 757 mmHg 49%
    18:00 +16°C° 0 mm 3 mps 757 mmHg 54%
    19:00 +14°C° 0 mm 2 mps 757 mmHg 60%
    20:00 +13°C° 0 mm 2 mps 758 mmHg 62%
    21:00 +12°C° 0 mm 2 mps 758 mmHg 63%
    22:00 +12°C° 0 mm 2 mps 758 mmHg 65%
    23:00 +10°C° 0 mm 2 mps 758 mmHg 67%

    11 April, Saturday

    Time Temperature Precipitation Wind Pressure Humidity
    00:00 +10°C° 0 mm 1 mps 758 mmHg 70%
    01:00 +10°C° 0 mm 1 mps 758 mmHg 73%
    02:00 +9°C° 0 mm 1 mps 758 mmHg 72%
    03:00 +9°C° 0 mm 1 mps 758 mmHg 72%
    04:00 +8°C° 0 mm 1 mps 758 mmHg 72%
    05:00 +9°C° 0 mm 1 mps 759 mmHg 70%
    06:00 +10°C° 0 mm 1 mps 759 mmHg 67%
    07:00 +11°C° 0 mm 1 mps 759 mmHg 65%
    08:00 +13°C° 0 mm 1 mps 759 mmHg 61%
    09:00 +14°C° 0 mm 1 mps 759 mmHg 56%
    10:00 +16°C° 0 mm 1 mps 759 mmHg 52%
    11:00 +19°C° 0 mm 1 mps 758 mmHg 48%
    12:00 +20°C° 0 mm 1 mps 758 mmHg 45%
    13:00 +19°C° 0 mm 0 mps 758 mmHg 41%
    14:00 +19°C° 0 mm 0 mps 757 mmHg 42%
    15:00 +19°C° 0 mm 0 mps 757 mmHg 42%
    16:00 +21°C° 0 mm 1 mps 757 mmHg 42%
    17:00 +19°C° 0 mm 1 mps 757 mmHg 48%
    18:00 +18°C° 0 mm 1 mps 756 mmHg 53%
    19:00 +15°C° 0 mm 1 mps 756 mmHg 58%
    20:00 +14°C° 0 mm 1 mps 756 mmHg 59%
    21:00 +14°C° 0 mm 1 mps 756 mmHg 61%
    22:00 +13°C° 0 mm 1 mps 757 mmHg 62%
    23:00 +13°C° 0 mm 1 mps 757 mmHg 64%

    12 April, Sunday

    Time Temperature Precipitation Wind Pressure Humidity
    00:00 +13°C° 0 mm 1 mps 756 mmHg 65%
    01:00 +12°C° 0 mm 1 mps 756 mmHg 66%
    02:00 +12°C° 0 mm 1 mps 756 mmHg 68%
    03:00 +12°C° 0 mm 1 mps 756 mmHg 69%
    04:00 +11°C° 0 mm 1 mps 756 mmHg 70%
    05:00 +12°C° 0 mm 2 mps 756 mmHg 69%
    06:00 +13°C° 0 mm 2 mps 756 mmHg 67%
    07:00 +15°C° 0 mm 2 mps 756 mmHg 65%
    08:00 +17°C° 0 mm 3 mps 756 mmHg 59%
    09:00 +19°C° 0 mm 3 mps 755 mmHg 54%
    10:00 +21°C° 0 mm 4 mps 755 mmHg 48%
    11:00 +22°C° 0 mm 4 mps 755 mmHg 46%
    12:00 +22°C° 0 mm 4 mps 754 mmHg 44%
    13:00 +23°C° 0 mm 4 mps 754 mmHg 42%
    14:00 +23°C° 0 mm 4 mps 753 mmHg 43%
    15:00 +23°C° 0 mm 4 mps 753 mmHg 44%
    16:00 +23°C° 0 mm 4 mps 752 mmHg 45%
    17:00 +21°C° 0 mm 4 mps 752 mmHg 51%
    18:00 +19°C° 0 mm 4 mps 752 mmHg 56%
    19:00 +17°C° 0 mm 3 mps 751 mmHg 62%
    20:00 +17°C° 0 mm 4 mps 751 mmHg 62%
    21:00 +15°C° 0 mm 4 mps 752 mmHg 61%
    22:00 +15°C° 0 mm 4 mps 752 mmHg 61%
    23:00 +14°C° 0 mm 4 mps 752 mmHg 60%
    Show more